Location: Endfield
(51.6667°N, 0.0667°W)
Time: 12:20:22
(UTC+00:00)

ARIANE 5 R/B - Pass Details

Date: 19 May 2024
Orbit: 617 x 651 km, 98.0° (Epoch: 11 June)

Event Time Altitude Azimuth Distance (km) Brightness Sun altitude
Exits shadow 22:16:00 26° 148° (SSE) 1,259 3.5 -15.0°
Maximum altitude 22:18:25 67° 72° (ENE) 683 2.7 -15.1°
Drops below altitude 10° 22:22:46 10° 350° (N) 2,007 6.5 -15.4°
Sets 22:24:58 0° 348° (NNW) 2,915 7.7 -15.5°
